Location: Proctor
(47.8934°N, 114.3048°W)
Time: 20:46:09
(UTC+00:00)

Tiros 1 despin weight - Pass Details

Date: 25 June 2024
Orbit: 576 x 620 km, 48.2° (Epoch: 19 July)

Event Time Altitude Azimuth Distance (km) Brightness Sun altitude
Rises 19:49:34 0° 249° (WSW) 2,883 ? 65.4°
Reaches altitude 10° 19:51:53 10° 247° (WSW) 1,982 ? 65.3°
Maximum altitude 19:56:26 73° 163° (SSE) 651 ? 65.2°
Drops below altitude 10° 20:01:00 10° 80° (E) 1,989 ? 65.1°
Sets 20:03:19 0° 78° (ENE) 2,894 ? 65.0°
